Location: Table Mountain
(47.2500°N, 120.5778°W)
Time: 13:42:53
(UTC-08:00)

Vanguard 2 - Visible Passes

Search period start: 17 December 2017 00:00
Search period end: 27 December 2017 00:00
Orbit: 553 x 2939 km, 32.9° (Epoch: 16 December)

Date Brightness Start Highest point End Pass type
(mag) Time Alt. Az. Time Alt. Az. Time Alt. Az.
19 Dec 10.0 16:53:46 10° WSW 16:58:14 18° SSW 17:01:43 10° SSE visible
20 Dec 10.2 17:12:12 10° WSW 17:15:51 15° SSW 17:18:49 10° S visible
21 Dec 10.5 17:31:16 10° SW 17:33:23 12° SSW 17:35:15 10° SSW visible
26 Dec 11.1 16:51:37 10° WSW 16:53:57 11° SW 16:56:03 10° SSW visible
